This is the latest recevied weather packets stored in our database for station/object KF0JHJ. If no packets are shown the sender has not sent any weather packets the latest 10 day(s).
| Time | Temp. | Humidity | Pressure | Rain* | Wind** | Luminosity | Snow |
|---|---|---|---|---|---|---|---|
| 1778092092 | 6.11° C | 54% | 1014.8 hPa | - | - | 190 W/m² | - |
| 1778091790 | 6.11° C | 56% | 1014.7 hPa | - | - | 166 W/m² | - |
| 1778091487 | 5.56° C | 56% | 1014.6 hPa | - | - | 168 W/m² | - |
| 1778091185 | 5.56° C | 58% | 1014.7 hPa | - | - | 143 W/m² | - |
| 1778090883 | 5.56° C | 58% | 1014.4 hPa | - | - | 126 W/m² | - |
| 1778090577 | 5.56° C | 60% | 1014.6 hPa | - | - | 114 W/m² | - |
| 1778090274 | 5.56° C | 57% | 1014.5 hPa | - | - | 138 W/m² | - |
| 1778089971 | 5.56° C | 58% | 1014.7 hPa | - | - | 184 W/m² | - |
| 1778089668 | 5.56° C | 59% | 1014.7 hPa | - | - | 220 W/m² | - |
| 1778089365 | 5° C | 60% | 1014.8 hPa | - | - | 219 W/m² | - |
| 1778089063 | 5° C | 63% | 1014.9 hPa | - | - | 148 W/m² | - |
| 1778088760 | 4.44° C | 60% | 1015 hPa | - | - | 95 W/m² | - |
| 1778088456 | 4.44° C | 60% | 1015 hPa | - | - | 95 W/m² | - |
| 1778088153 | 4.44° C | 59% | 1015 hPa | - | - | 84 W/m² | - |
| 1778087851 | 5° C | 59% | 1015.1 hPa | - | - | 81 W/m² | - |
| 1778087548 | 5° C | 59% | 1015.1 hPa | - | - | 83 W/m² | - |
| 1778087246 | 5° C | 59% | 1014.8 hPa | - | - | 88 W/m² | - |
| 1778086942 | 5° C | 59% | 1014.9 hPa | - | - | 93 W/m² | - |
| 1778086640 | 5° C | 58% | 1015.1 hPa | - | - | 102 W/m² | - |
| 1778086337 | 5° C | 57% | 1015.1 hPa | - | - | 108 W/m² | - |
| 1778086034 | 5° C | 59% | 1015.1 hPa | - | - | 122 W/m² | - |
| 1778085731 | 5° C | 61% | 1015.2 hPa | - | - | 135 W/m² | - |
| 1778085428 | 5° C | 60% | 1015.3 hPa | - | - | 159 W/m² | - |
| 1778085122 | 4.44° C | 59% | 1015.3 hPa | - | - | 146 W/m² | - |
| 1778084819 | 5° C | 61% | 1015.1 hPa | - | - | 136 W/m² | - |
* Rain since midnight (hover to see other rain measurements)
** Current wind speed in m/s (hover to see current wind gust speed)